This is the latest recevied weather packets stored in our database for station/object K4DFD-13. If no packets are shown the sender has not sent any weather packets the latest 10 day(s).
| Time | Temp. | Humidity | Pressure | Rain* | Wind** | Luminosity | Snow |
|---|---|---|---|---|---|---|---|
| 1777379216 | 10.56° C | 98% | 1020.9 hPa | 0 mm | - | - | - |
| 1777378914 | 10.56° C | 99% | 1020.5 hPa | 0 mm | - | - | - |
| 1777378314 | 10° C | 100% | 1019.8 hPa | 0 mm | - | - | - |
| 1777377713 | 10° C | 100% | 1020.2 hPa | 0 mm | - | - | - |
| 1777377413 | 10° C | 100% | 1020.6 hPa | 0.25 mm | - | - | - |
| 1777376812 | 10° C | 100% | 1021.5 hPa | 0.51 mm | - | - | - |
| 1777375911 | 10° C | 99% | 1021.8 hPa | 1.02 mm | - | - | - |
| 1777375310 | 9.44° C | 99% | 1021.8 hPa | 1.27 mm | - | - | - |
| 1777374709 | 9.44° C | 99% | 1022.2 hPa | 1.78 mm | - | - | - |
| 1777372907 | 9.44° C | 99% | 1022.8 hPa | 10.16 mm | - | - | - |
| 1777372606 | 9.44° C | 99% | 1022.8 hPa | 10.41 mm | - | - | - |
| 1777372306 | 9.44° C | 99% | 1022.8 hPa | 9.91 mm | - | - | - |
| 1777372005 | 9.44° C | 99% | 1022.9 hPa | 9.91 mm | - | - | - |
| 1777371705 | 9.44° C | 99% | 1022.9 hPa | 4.83 mm | - | - | - |
| 1777371405 | 9.44° C | 99% | 1022.5 hPa | 4.32 mm | - | - | - |
| 1777371104 | 9.44° C | 100% | 1022.4 hPa | 5.59 mm | - | - | - |
| 1777370804 | 10° C | 99% | 1022.5 hPa | 5.59 mm | - | - | - |
| 1777370503 | 10° C | 98% | 1022.7 hPa | 4.32 mm | - | - | - |
| 1777370203 | 10° C | 97% | 1022.7 hPa | 0.76 mm | - | - | - |
| 1777369902 | 10° C | 95% | 1022.4 hPa | 0.76 mm | - | - | - |
| 1777369602 | 10° C | 96% | 1021.6 hPa | 0.76 mm | - | - | - |
| 1777369302 | 10° C | 95% | 1021.3 hPa | 0.25 mm | - | - | - |
| 1777369001 | 10° C | 96% | 1021.2 hPa | 0 mm | - | - | - |
| 1777368701 | 10° C | 95% | 1021.7 hPa | 0 mm | - | - | - |
| 1777368401 | 10° C | 94% | 1022 hPa | 0 mm | - | - | - |
* Rain latest hour (hover to see other rain measurements)
** Current wind speed in m/s (hover to see current wind gust speed)